Flag for Canada Weather past 2 weeks in Quispamsis, New Brunswick, Canada

Now
21 °F

Clear.


Feels Like: 15 °F
Forecast: 16 / 36 °F
Wind: 5 mph from West

Location: Saint John

Current Time: Apr 2, 2015 at 1:26:51 AM

Latest Report: Apr 2, 2015 at 12:00 AM


Visibility: 15 mi

Pressure: 30.00 "Hg

Humidity: 38%

Dew point: 0 °F

Location of QuispamsisLocation

Historic Weather in Quispamsis — Graph

°F

Quispamsis temperature yesterday

Maximum temperature yesterday: 30 °F (at 1:00 PM)
Minimum temperature yesterday: 21 °F (at 5:00 AM)
Average temperature yesterday: 26 °F

Past Weeks' High & Low Weather Summary

 TemperatureHumidityPressure
High41 °F (Mar 25, 2:00 PM)100% (Mar 22, 12:00 AM)30.35 "Hg (Mar 22, 12:00 AM)
Low3 °F (Mar 24, 8:00 AM)21% (Mar 29, 2:00 PM)29.21 "Hg (Mar 18, 4:00 AM)
Average25 °F70%29.85 "Hg
* Reported Mar 17 11:00 PM — Apr 1 11:00 PM, Quispamsis, Weather by CustomWeather, © 2015

Note: Actual official high and low records may vary slightly from our data, if they occured in-between our weather recording intervals... More about our weather records

Advertising

Quispamsis weather history for previous 24 hours

 ConditionsComfort  
Time TempWeatherWind HumidityBarometerVisibility
11:00 PM
Wed, Apr 1
23 °FClear.3 mph36%29.99 "Hg15 mi
10:00 PM23 °FClear.12 mph42%29.98 "Hg15 mi
9:00 PM23 °FClear.12 mph42%29.95 "Hg15 mi
8:00 PM27 °FChilly.15 mph33%29.91 "Hg15 mi
7:00 PM28 °FSunny.20 mph31%29.88 "Hg15 mi
6:00 PM28 °FSunny.18 mph31%29.86 "Hg15 mi
5:00 PM28 °FSunny.24 mph31%29.84 "Hg15 mi
4:00 PM30 °FSunny.20 mph31%29.81 "Hg15 mi
3:00 PM30 °FSunny.23 mph31%29.80 "Hg15 mi
2:00 PM30 °FSunny.22 mph34%29.80 "Hg15 mi
1:00 PM30 °FPassing clouds.18 mph34%29.81 "Hg15 mi
12:00 PM28 °FPassing clouds.15 mph43%29.84 "Hg15 mi
11:00 AM27 °FPassing clouds.20 mph43%29.85 "Hg15 mi
10:00 AM25 °FPassing clouds.17 mph50%29.85 "Hg15 mi
9:00 AM23 °FPassing clouds.15 mph54%29.84 "Hg15 mi
8:00 AM21 °FPassing clouds.13 mph63%29.82 "Hg15 mi
7:00 AM21 °FPassing clouds.12 mph63%29.79 "Hg15 mi
6:00 AM23 °FPassing clouds.9 mph68%29.76 "Hg15 mi
5:00 AM21 °FPassing clouds.6 mph74%29.74 "Hg15 mi
4:00 AM25 °FPassing clouds.9 mph74%29.74 "Hg15 mi
3:00 AM27 °FPassing clouds.12 mph69%29.73 "Hg15 mi
2:00 AM27 °FPassing clouds.9 mph74%29.73 "Hg15 mi
1:00 AM27 °FPassing clouds.9 mph80%29.73 "Hg15 mi
Weather by CustomWeather, © 2015

See weather overviewHow to use our weather pages